Location: Palmerston North
(40.3500°S, 175.6170°E)
Time: 18:15:56
(UTC+13:00)

ADEOS Rocket - Pass Details

Date: 24 January 2019
Orbit: 859 x 1306 km, 98.7° (Epoch: 15 February)

Event Time Altitude Azimuth Distance (km) Brightness Sun altitude
Exits shadow 23:05:50 15° 334° (NNW) 2,219 4.6 -21.7°
Maximum altitude 23:09:49 33° 277° (W) 1,439 4.1 -22.1°
Drops below altitude 10° 23:14:46 10° 213° (SSW) 2,527 6.3 -22.7°
Sets 23:17:25 0° 203° (SSW) 3,480 7.3 -23.0°
